Weather History for Waskish, MN

Change the Weather History Date:

Monday, January 21, 2013

  Actual Average (KBDE) Record (KBDE)
Temperature  
Mean Temperature -14 °F -  
Max Temperature -9 °F 19 °F 42 °F (1968)
Min Temperature -20 °F -3 °F -45 °F (1954)
Degree Days  
Heating Degree Days 80    
Moisture  
Dew Point -22 °F    
Average Humidity 72    
Maximum Humidity 84    
Minimum Humidity 65    
Precipitation  
Precipitation 0.00 in - - ()
Sea Level Pressure  
Sea Level Pressure 30.18 in    
Wind  
Wind Speed 11 mph (West)    
Max Wind Speed 14 mph    
Max Gust Speed 20 mph    
Visibility 10 miles    
Events Snow    
Averages and records for this station are not official NWS values.
T = Trace of Precipitation, MM = Missing Value Source: NWS Daily Summary

Daily Weather History Graph

Daily Weather History Graph

Search for Another Location

Airport:

Trip Planner

Search our weather history database for the weather conditions in past years. The results will help you decide how hot, cold, wet, or windy it might be!

Date:

Astronomy

Jan. 21, 2013 Rise Set
Actual Time 7:58 AM CST 5:01 PM CST
Civil Twilight 7:23 AM CST 5:35 PM CST
Nautical Twilight 6:45 AM CST 6:13 PM CST
Astronomical Twilight 6:08 AM CST 6:50 PM CST
Moon 12:39 PM CST (1/21) 3:28 AM CST (1/21)
Length of Visible Light 10h 11m
Length of Day
9h 02m
Waxing Gibbous, 75% of the Moon is Illuminated
Jan 21
Waxing Gibbous
Jan 26
Full
Feb 3
Last Quarter
Feb 10
New
Feb 17
First Quarter

Hourly Weather History & Observations

Time (CST) Temp. Windchill Dew Point Humidity Pressure Visibility Wind Dir Wind Speed Gust Speed Precip Events Conditions
12:15 AM -16.6 °F -36.8 °F -22.0 °F 76% 30.20 in 10.0 mi West 10.4 mph 17.3 mph N/A   Clear
12:36 AM -16.6 °F -37.9 °F -22.0 °F 76% 30.20 in 10.0 mi West 11.5 mph 16.1 mph N/A   Clear
12:55 AM -16.6 °F -37.9 °F -22.0 °F 76% 30.20 in 10.0 mi West 11.5 mph - N/A   Clear
1:16 AM -16.6 °F -36.8 °F -23.8 °F 70% 30.20 in 10.0 mi West 10.4 mph 17.3 mph N/A   Clear
1:35 AM -18.4 °F -39.1 °F -23.8 °F 76% 30.20 in 10.0 mi West 10.4 mph 17.3 mph N/A   Clear
1:55 AM -18.4 °F -37.9 °F -23.8 °F 76% 30.20 in 10.0 mi West 9.2 mph - N/A   Clear
2:36 AM -16.6 °F -39.8 °F -23.8 °F 70% 30.20 in 7.0 mi West 13.8 mph - N/A   Scattered Clouds
2:55 AM -16.6 °F -37.9 °F -23.8 °F 70% 30.20 in 10.0 mi West 11.5 mph - N/A   Mostly Cloudy
3:16 AM -16.6 °F -38.9 °F -23.8 °F 70% 30.20 in 10.0 mi West 12.7 mph - N/A   Scattered Clouds
3:35 AM -16.6 °F -38.9 °F -23.8 °F 70% 30.20 in 10.0 mi West 12.7 mph - N/A   Scattered Clouds
3:55 AM -16.6 °F -38.9 °F -23.8 °F 70% 30.20 in 7.0 mi West 12.7 mph - N/A   Scattered Clouds
4:16 AM -16.6 °F -37.9 °F -23.8 °F 70% 30.19 in 10.0 mi West 11.5 mph 17.3 mph N/A   Overcast
4:35 AM -18.4 °F -40.2 °F -23.8 °F 76% 30.19 in 10.0 mi West 11.5 mph - N/A   Overcast
5:16 AM -18.4 °F -39.1 °F -23.8 °F 76% 30.18 in 10.0 mi West 10.4 mph - N/A   Clear
5:35 AM -18.4 °F -40.2 °F -23.8 °F 76% 30.18 in 10.0 mi West 11.5 mph - N/A   Clear
5:55 AM -18.4 °F -40.2 °F -23.8 °F 76% 30.19 in 10.0 mi West 11.5 mph - N/A   Clear
6:16 AM -18.4 °F -40.2 °F -25.6 °F 70% 30.18 in 10.0 mi West 11.5 mph - N/A   Clear
6:35 AM -18.4 °F -40.2 °F -25.6 °F 70% 30.19 in 10.0 mi West 11.5 mph 17.3 mph N/A   Clear
6:55 AM -18.4 °F -41.2 °F -23.8 °F 76% 30.18 in 10.0 mi West 12.7 mph - N/A   Clear
7:16 AM -18.4 °F -37.9 °F -25.6 °F 70% 30.18 in 10.0 mi West 9.2 mph - N/A   Clear
7:35 AM -20.2 °F -41.3 °F -25.6 °F 76% 30.18 in 7.0 mi West 10.4 mph - N/A   Scattered Clouds
7:55 AM -18.4 °F -40.2 °F -25.6 °F 70% 30.18 in 10.0 mi West 11.5 mph - N/A   Mostly Cloudy
8:16 AM -18.4 °F -40.2 °F -25.6 °F 70% 30.18 in 10.0 mi West 11.5 mph 16.1 mph N/A   Overcast
8:35 AM -18.4 °F -39.1 °F -25.6 °F 70% 30.19 in 5.0 mi West 10.4 mph - N/A   Haze
8:55 AM -18.4 °F -40.2 °F -25.6 °F 70% 30.19 in 4.0 mi WSW 11.5 mph - N/A Snow Light Snow
9:16 AM -18.4 °F -40.2 °F -23.8 °F 76% 30.20 in 10.0 mi West 11.5 mph - N/A   Scattered Clouds
9:35 AM -18.4 °F -39.1 °F -23.8 °F 76% 30.20 in 10.0 mi West 10.4 mph - N/A   Clear
9:55 AM -16.6 °F -36.8 °F -23.8 °F 70% 30.19 in 10.0 mi WSW 10.4 mph - N/A   Clear
10:16 AM -16.6 °F -35.7 °F -23.8 °F 70% 30.20 in 10.0 mi WSW 9.2 mph - N/A   Clear
10:35 AM -16.6 °F -34.4 °F -23.8 °F 70% 30.20 in 10.0 mi WSW 8.1 mph - N/A   Clear
10:55 AM -14.8 °F -32.2 °F -22.0 °F 70% 30.20 in 10.0 mi WSW 8.1 mph - N/A   Scattered Clouds
11:16 AM -14.8 °F -33.5 °F -20.2 °F 77% 30.20 in 10.0 mi WSW 9.2 mph - N/A   Scattered Clouds
11:35 AM -14.8 °F -33.5 °F -20.2 °F 77% 30.19 in 10.0 mi WSW 9.2 mph - N/A   Scattered Clouds
11:55 AM -11.2 °F -29.0 °F -18.4 °F 70% 30.18 in 7.0 mi WSW 9.2 mph - N/A   Scattered Clouds
12:15 PM -11.2 °F -30.1 °F -18.4 °F 70% 30.18 in 7.0 mi West 10.4 mph - N/A   Clear
12:35 PM -9.4 °F -27.9 °F -18.4 °F 65% 30.17 in 10.0 mi West 10.4 mph 17.3 mph N/A   Clear
12:55 PM -9.4 °F -29.8 °F -18.4 °F 65% 30.16 in 10.0 mi West 12.7 mph 18.4 mph N/A   Clear
1:15 PM -9.4 °F -30.6 °F -18.4 °F 65% 30.16 in 10.0 mi West 13.8 mph 17.3 mph N/A   Scattered Clouds
1:35 PM -9.4 °F -30.6 °F -18.4 °F 65% 30.16 in 10.0 mi West 13.8 mph 18.4 mph N/A   Clear
1:55 PM -9.4 °F -30.6 °F -18.4 °F 65% 30.15 in 10.0 mi West 13.8 mph 18.4 mph N/A   Clear
2:15 PM -9.4 °F -27.9 °F -18.4 °F 65% 30.15 in 10.0 mi West 10.4 mph - N/A   Clear
2:36 PM -9.4 °F -30.6 °F -18.4 °F 65% 30.16 in 10.0 mi West 13.8 mph - N/A   Clear
2:55 PM -9.4 °F -29.8 °F -18.4 °F 65% 30.16 in 10.0 mi West 12.7 mph 16.1 mph N/A   Scattered Clouds
3:15 PM -9.4 °F -29.8 °F -18.4 °F 65% 30.16 in 10.0 mi West 12.7 mph - N/A   Clear
3:36 PM -9.4 °F -28.9 °F -18.4 °F 65% 30.16 in 10.0 mi West 11.5 mph - N/A   Clear
3:55 PM -11.2 °F -32.9 °F -18.4 °F 70% 30.16 in 10.0 mi WSW 13.8 mph - N/A   Clear
4:15 PM -11.2 °F -32.1 °F -18.4 °F 70% 30.16 in 10.0 mi WSW 12.7 mph - N/A   Clear
4:36 PM -11.2 °F -31.1 °F -18.4 °F 70% 30.16 in 10.0 mi West 11.5 mph - N/A   Clear
4:55 PM -11.2 °F -32.9 °F -18.4 °F 70% 30.16 in 10.0 mi West 13.8 mph - N/A   Clear
5:15 PM -11.2 °F -32.1 °F -18.4 °F 70% 30.16 in 10.0 mi West 12.7 mph 19.6 mph N/A   Clear
5:35 PM -13.0 °F -34.3 °F -18.4 °F 77% 30.16 in 10.0 mi West 12.7 mph - N/A   Clear
5:55 PM -13.0 °F -35.2 °F -18.4 °F 77% 30.16 in 10.0 mi WSW 13.8 mph - N/A   Clear
6:16 PM -14.8 °F -36.6 °F -20.2 °F 77% 30.16 in 10.0 mi WSW 12.7 mph - N/A   Clear
6:55 PM -14.8 °F -34.6 °F -20.2 °F 77% 30.17 in 10.0 mi WSW 10.4 mph - N/A   Clear
7:16 PM -14.8 °F -34.6 °F -20.2 °F 77% 30.17 in 10.0 mi WSW 10.4 mph - N/A   Clear
7:35 PM -14.8 °F -35.6 °F -20.2 °F 77% 30.18 in 10.0 mi WSW 11.5 mph - N/A   Clear
7:55 PM -14.8 °F -33.5 °F -20.2 °F 77% 30.18 in 10.0 mi West 9.2 mph - N/A   Clear
8:16 PM -16.6 °F -32.9 °F -20.2 °F 84% 30.19 in 10.0 mi West 6.9 mph - N/A   Clear
8:35 PM -16.6 °F -34.4 °F -22.0 °F 76% 30.19 in 10.0 mi West 8.1 mph - N/A   Clear
9:35 PM -16.6 °F -34.4 °F -22.0 °F 76% 30.19 in 10.0 mi West 8.1 mph - N/A   Clear
9:55 PM -16.6 °F -34.4 °F -22.0 °F 76% 30.19 in 10.0 mi West 8.1 mph - N/A   Clear
10:16 PM -16.6 °F -31.3 °F -22.0 °F 76% 30.19 in 10.0 mi WSW 5.8 mph - N/A   Clear
10:35 PM -16.6 °F -31.3 °F -23.8 °F 70% 30.20 in 10.0 mi WSW 5.8 mph - N/A   Clear
10:55 PM -18.4 °F -35.1 °F -23.8 °F 76% 30.20 in 10.0 mi WSW 6.9 mph - N/A   Clear
11:35 PM -16.6 °F -34.4 °F -22.0 °F 76% 30.20 in 10.0 mi West 8.1 mph - N/A   Clear
11:55 PM -16.6 °F -34.4 °F -22.0 °F 76% 30.21 in 10.0 mi West 8.1 mph - N/A   Clear